TimeEST,TemperatureF,Dew PointF,Humidity,Sea Level PressureIn,VisibilityMPH,Wind Direction,Wind SpeedMPH,Gust SpeedMPH,PrecipitationIn,Events,Conditions,WindDirDegrees,DateUTC
12:54 AM,62.1,59.0,90,29.84,10.0,South,8.1,-,N/A,,Mostly Cloudy,180,2013-01-13 05:54:00
1:54 AM,64.0,57.9,80,29.81,10.0,South,10.4,-,N/A,,Overcast,170,2013-01-13 06:54:00
2:54 AM,63.0,57.9,84,29.81,10.0,South,10.4,-,N/A,,Partly Cloudy,170,2013-01-13 07:54:00
3:54 AM,64.0,57.0,78,29.80,10.0,South,12.7,-,N/A,,Mostly Cloudy,180,2013-01-13 08:54:00
4:54 AM,64.0,55.9,75,29.78,10.0,South,16.1,23.0,N/A,,Mostly Cloudy,180,2013-01-13 09:54:00
5:54 AM,64.0,55.9,75,29.79,10.0,South,15.0,-,N/A,,Overcast,190,2013-01-13 10:54:00
7:54 AM,61.0,55.9,83,29.88,10.0,SW,12.7,-,0.00,Rain,Light Rain,220,2013-01-13 12:54:00
8:54 AM,60.1,57.0,90,29.91,10.0,SSW,9.2,-,0.01,Rain,Light Rain,200,2013-01-13 13:54:00
9:54 AM,60.1,57.0,90,29.91,10.0,South,10.4,-,0.00,Rain,Light Rain,190,2013-01-13 14:54:00
11:54 AM,62.1,55.9,80,29.87,10.0,South,9.2,-,N/A,,Mostly Cloudy,170,2013-01-13 16:54:00
12:54 PM,63.0,55.0,75,29.85,10.0,SSW,8.1,-,0.00,,Overcast,200,2013-01-13 17:54:00
1:54 PM,64.0,55.9,75,29.82,10.0,South,10.4,18.4,N/A,,Partly Cloudy,180,2013-01-13 18:54:00
2:54 PM,64.0,55.0,73,29.85,10.0,SSW,6.9,-,N/A,,Mostly Cloudy,210,2013-01-13 19:54:00
3:54 PM,63.0,53.1,70,29.86,10.0,SSW,11.5,19.6,0.00,Rain,Light Rain,200,2013-01-13 20:54:00
4:54 PM,60.1,55.0,83,29.88,7.0,SSW,9.2,-,0.02,Rain,Light Rain,200,2013-01-13 21:54:00
5:54 PM,59.0,55.0,87,29.89,9.0,South,6.9,-,0.07,Rain,Light Rain,190,2013-01-13 22:54:00
6:54 PM,57.9,55.0,90,29.84,10.0,SSE,8.1,-,0.04,Rain,Light Rain,150,2013-01-13 23:54:00
7:54 PM,57.9,55.0,90,29.86,7.0,SW,5.8,-,0.04,Rain,Light Rain,220,2013-01-14 00:54:00
8:13 PM,57.2,55.4,94,29.85,5.0,SSW,6.9,-,0.03,Rain,Rain,200,2013-01-14 01:13:00
8:25 PM,57.2,55.4,94,29.85,6.0,South,8.1,-,0.05,Rain,Rain,190,2013-01-14 01:25:00
8:54 PM,57.9,55.9,93,29.83,10.0,SSW,9.2,-,0.06,,Overcast,200,2013-01-14 01:54:00
9:03 PM,57.2,55.4,94,29.83,10.0,SSW,8.1,-,N/A,,Overcast,200,2013-01-14 02:03:00
9:12 PM,57.2,55.4,94,29.84,10.0,SSW,8.1,-,0.00,Rain,Light Rain,200,2013-01-14 02:12:00
9:25 PM,48.2,44.6,87,29.85,7.0,NW,19.6,26.5,0.01,Rain,Rain,310,2013-01-14 02:25:00
9:31 PM,46.4,42.8,87,29.87,6.0,WNW,21.9,33.4,0.02,Rain,Light Rain,300,2013-01-14 02:31:00
9:39 PM,46.4,42.8,87,29.89,9.0,NW,20.7,33.4,0.02,Rain,Light Rain,310,2013-01-14 02:39:00
9:50 PM,46.4,42.8,87,29.90,7.0,WNW,12.7,23.0,0.02,Rain,Light Rain,290,2013-01-14 02:50:00
9:54 PM,46.0,43.0,89,29.90,6.0,WNW,10.4,18.4,0.02,Rain,Light Rain,290,2013-01-14 02:54:00
10:08 PM,44.6,42.8,93,29.91,4.0,NW,17.3,21.9,0.00,Rain,Light Rain,310,2013-01-14 03:08:00
10:28 PM,44.6,41.0,87,29.94,4.0,NW,15.0,26.5,0.00,Rain,Light Rain,310,2013-01-14 03:28:00
10:54 PM,43.0,39.9,89,30.00,6.0,WNW,16.1,23.0,0.01,,Overcast,300,2013-01-14 03:54:00
11:01 PM,42.8,39.2,87,30.00,6.0,WNW,8.1,23.0,N/A,,Overcast,300,2013-01-14 04:01:00
11:23 PM,42.8,37.4,81,30.04,9.0,NW,15.0,-,N/A,,Overcast,310,2013-01-14 04:23:00
11:54 PM,41.0,37.9,89,30.06,10.0,NW,8.1,-,N/A,,Overcast,310,2013-01-14 04:54:00